CZ-3B R/B, 59070

Orbit data source: Space-Track

CZ-3B R/B, 59070 is space debris in HEO originally from a launch on Thu, 29 Feb 2024 UTC launched from the Xichang Space Center, China (XSC). Debris objects in space refer to the collection of defunct objects orbiting the Earth. Examples of debris include non-operational satellites, rocket bodies, and fragments generated from explosions, collisions, or faulty payload assembly.

Loading next visibility...
Identifier
59070, 2024-040B
Orbit
HEO
Country
Flag of CNCN / PRC
Related business
Manufacturer
CALT
Mission
Spacecraft
Bus & Motor
CZ-3A STAGE 3, Unknown motor
Mass
~2,800 kg wet, ~2,800 kg dry
Launch date (UTC)
2024-02-29 (2 years ago)
Launch vehicle
Unknown
Launch site
Xichang Space Center, China (XSC)
Object type
Payload
Rocket body
Debris
Shape & HBR
Cyl + 1 Nozzle, 6.2 m
Radar Cross Section
32.704 m², Large (>1 m²)

Expand to show TLE details & history
Last TLE update: 2 days ago

TLE from 2 days ago
0 CZ-3B R/B
1 59070U 24040B   26171.38853666  .00197372 -10160-6  26535-2 0  9990
2 59070  27.3504 293.9638 6466744 150.1392 272.0248  3.44475337 24036
Epoch: 2026-06-20T09:19Z
TLE epoch observation values (Epoch: 2026-06-20T09:19:29.567Z)
Latitude
0.00003°
Longitude
-114.53288°
Altitude
18,147.699 km
Speed
3.314 km/s
True Right ascension
19h 35m 46s
True Declination
0° 00' 00"
Sunlit
Object was in daylight at epoch
Visualization orbit readout
Latitude
Unknown
Longitude
Unknown
Altitude
Unknown
Speed
Unknown
Apparent Right ascension
Unknown
Apparent Declination
Unknown
Sunlit
N/A
Visualization observer readout
Local Sidereal Time
21:31:57
Azimuth
Unknown
Elevation
Unknown
Doppler factor
Unknown
Orbital elements
Apogee altitude
24,123.534 km
Perigee altitude
166.582 km
Semi-major axis
18,523.195 km
Eccentricity
0.64667
Inclination
27.3504°
RAAN
293.9638°
Arg. of periapsis
150.1392°
True anomaly
209.91794°
Mean anomaly
272.0248°
Eccentric anomaly
239.95246°
Mean motion
0.86093 °/min
Orbital period
418.15 mins
BSTAR
0.0026535
Loading maneuver chart data...
Computing Atmospheric mass density...
Loading historical data...
Loading historical data...
Loading historical data...
Loading historical data...
Loading historical data...
Loading historical data...
Loading historical data...
Other satellites on launch #40 in the year 2024 (2024-02-29 UTC)

Documentation

Showing up to 5 results
|